Radiation Dose at Monitoring Post of Fukushima Daini Nuclear Power Station
Date,Time,MP-1(microSv/h),MP-2(microSv/h),MP-3(microSv/h),MP-4(microSv/h),MP-5(microSv/h),MP-6(microSv/h),MP-7(microSv/h),Wind Direction,Wind Velocity(m/s),Rain
2012/12/20,00:00,1.1,0.7,1.1,1.0,1.0,0.5,0.4,north-northwest,0.8,No
2012/12/20,00:10,1.1,0.7,1.1,1.0,1.0,0.5,0.4,north,1.4,No
2012/12/20,00:20,1.1,0.7,1.1,1.0,1.0,0.5,0.4,north,1.5,No
2012/12/20,00:30,1.1,0.7,1.1,1.0,1.0,0.5,0.4,north,3.1,No
2012/12/20,00:40,1.1,0.7,1.1,1.0,1.0,0.5,0.4,north,2.5,No
2012/12/20,00:50,1.1,0.7,1.1,1.0,1.0,0.5,0.4,north,0.9,No
2012/12/20,01:00,1.1,0.7,1.1,1.0,1.0,0.5,0.4,west-southwest,0.6,No
2012/12/20,01:10,1.1,0.7,1.1,1.0,1.0,0.5,0.4,north,1.0,No
2012/12/20,01:20,1.1,0.7,1.1,1.0,1.0,0.5,0.4,-,CALM,No
2012/12/20,01:30,1.1,0.7,1.1,1.0,1.0,0.5,0.4,west-northwest,1.1,No
2012/12/20,01:40,1.1,0.7,1.1,1.0,1.0,0.5,0.4,west-northwest,1.6,No
2012/12/20,01:50,1.1,0.7,1.1,1.0,1.0,0.5,0.4,northwest,1.5,No
2012/12/20,02:00,1.1,0.7,1.1,1.0,1.0,0.5,0.4,north-northwest,3.6,No
2012/12/20,02:10,1.1,0.7,1.1,1.0,1.0,0.5,0.4,north,3.7,No
2012/12/20,02:20,1.1,0.7,1.1,1.0,1.0,0.5,0.4,north-northwest,2.3,No
2012/12/20,02:30,1.1,0.7,1.1,1.0,1.0,0.5,0.4,north-northeast,2.0,No
2012/12/20,02:40,1.1,0.7,1.1,1.0,1.0,0.5,0.4,northwest,2.2,No
2012/12/20,02:50,1.1,0.7,1.1,1.0,1.0,0.5,0.4,northwest,1.3,No
2012/12/20,03:00,1.1,0.7,1.1,1.0,1.0,0.5,0.4,northwest,0.5,No
2012/12/20,03:10,1.1,0.7,1.1,1.0,1.0,0.5,0.4,west,1.1,No
2012/12/20,03:20,1.1,0.7,1.1,1.0,1.0,0.5,0.4,west-northwest,0.7,No
2012/12/20,03:30,1.1,0.7,1.1,1.0,1.0,0.5,0.4,-,CALM,No
2012/12/20,03:40,1.1,0.7,1.1,1.0,1.0,0.5,0.4,west-southwest,1.6,No
2012/12/20,03:50,1.1,0.7,1.1,1.0,1.0,0.5,0.4,south-southwest,1.3,No
2012/12/20,04:00,1.1,0.7,1.1,1.0,1.0,0.5,0.4,south,1.1,No
2012/12/20,04:10,1.1,0.7,1.1,1.0,1.0,0.5,0.4,-,CALM,No
2012/12/20,04:20,1.1,0.7,1.1,1.0,1.0,0.5,0.4,south-southeast,0.5,No
2012/12/20,04:30,1.1,0.7,1.1,1.0,1.0,0.5,0.4,south,1.6,No
2012/12/20,04:40,1.1,0.7,1.1,1.0,1.0,0.5,0.4,-,CALM,No
2012/12/20,04:50,1.1,0.7,1.1,1.0,1.0,0.5,0.4,east-southeast,0.6,No
2012/12/20,05:00,1.1,0.7,1.1,1.0,1.0,0.5,0.4,south,1.5,No
2012/12/20,05:10,1.1,0.7,1.1,1.0,1.0,0.5,0.4,-,CALM,No
2012/12/20,05:20,1.1,0.7,1.1,1.0,1.0,0.5,0.4,-,CALM,No
2012/12/20,05:30,1.1,0.7,1.1,1.0,1.0,0.5,0.4,south-southwest,0.7,No
2012/12/20,05:40,1.1,0.7,1.1,1.0,1.0,0.5,0.4,west,0.5,No
2012/12/20,05:50,1.1,0.7,1.1,1.0,1.0,0.5,0.4,south,0.7,No
2012/12/20,06:00,1.1,0.7,1.1,1.0,1.0,0.5,0.4,-,CALM,No
2012/12/20,06:10,1.1,0.7,1.1,1.0,1.0,0.5,0.4,-,CALM,No
2012/12/20,06:20,1.1,0.7,1.1,1.0,1.0,0.5,0.4,-,CALM,No
2012/12/20,06:30,1.1,0.7,1.1,1.0,1.0,0.5,0.4,-,CALM,No
2012/12/20,06:40,1.1,0.7,1.1,1.0,1.0,0.5,0.4,-,CALM,No
2012/12/20,06:50,1.1,0.7,1.1,1.0,1.0,0.5,0.4,west-southwest,0.8,No
2012/12/20,07:00,1.1,0.7,1.1,1.0,1.0,0.5,0.4,northwest,1.4,No
2012/12/20,07:10,1.1,0.7,1.1,1.0,1.0,0.5,0.4,southwest,0.8,No
2012/12/20,07:20,1.1,0.7,1.1,1.0,1.0,0.5,0.4,-,CALM,No
2012/12/20,07:30,1.1,0.7,1.1,1.0,1.0,0.5,0.4,southwest,0.8,No
2012/12/20,07:40,1.1,0.7,1.1,1.0,1.0,0.5,0.4,west-southwest,0.8,No
2012/12/20,07:50,1.1,0.7,1.1,1.0,1.0,0.5,0.4,southwest,1.9,No
2012/12/20,08:00,1.1,0.7,1.1,1.0,1.0,0.5,0.4,west,2.6,No
2012/12/20,08:10,1.1,0.7,1.1,1.0,1.0,0.5,0.4,west-southwest,1.2,No
2012/12/20,08:20,1.1,0.7,1.1,1.0,1.0,0.5,0.4,northwest,1.6,No
2012/12/20,08:30,1.1,0.7,1.1,1.0,1.0,0.5,0.4,west,1.9,No
2012/12/20,08:40,1.1,0.7,1.1,1.0,1.0,0.5,0.4,southwest,2.7,No
2012/12/20,08:50,1.1,0.7,1.1,1.0,1.0,0.5,0.4,west-southwest,2.5,No
2012/12/20,09:00,1.1,0.7,1.1,1.0,1.0,0.5,0.4,west-southwest,2.8,No
2012/12/20,09:10,1.1,0.7,1.1,1.0,1.0,0.5,0.4,southwest,1.4,No
2012/12/20,09:20,1.1,0.7,1.1,1.0,1.0,0.5,0.4,-,CALM,No
2012/12/20,09:30,1.1,0.7,1.1,1.0,1.0,0.5,0.4,northeast,1.4,No
2012/12/20,09:40,1.1,0.7,1.1,1.0,1.0,0.5,0.4,northeast,1.4,No
2012/12/20,09:50,1.1,0.7,1.1,1.0,1.0,0.5,0.4,northeast,1.7,No
2012/12/20,10:00,1.1,0.7,1.1,1.0,1.0,0.5,0.4,east,1.7,No
2012/12/20,10:10,1.1,0.7,1.1,1.0,1.0,0.5,0.4,east-northeast,2.0,No
2012/12/20,10:20,1.1,0.7,1.1,1.0,1.0,0.5,0.4,east,1.7,No
2012/12/20,10:30,1.1,0.7,1.1,1.0,1.0,0.5,0.4,-,CALM,No
2012/12/20,10:40,1.1,0.7,1.1,1.0,1.0,0.5,0.4,west-northwest,3.3,No
2012/12/20,10:50,1.1,0.7,1.1,1.0,1.0,0.5,0.4,west-northwest,4.0,No
2012/12/20,11:00,1.1,0.7,1.1,1.0,1.0,0.5,0.4,west-northwest,4.2,No
2012/12/20,11:10,1.1,0.7,1.1,1.0,1.0,0.5,0.4,west-northwest,4.4,No
2012/12/20,11:20,1.1,0.7,1.1,1.0,1.0,0.5,0.4,west-northwest,5.5,No
2012/12/20,11:30,1.1,0.7,1.1,1.0,1.0,0.5,0.4,west-northwest,5.3,No
2012/12/20,11:40,1.1,0.7,1.1,1.0,1.0,0.5,0.4,west-northwest,4.2,No
2012/12/20,11:50,1.1,0.7,1.1,1.0,1.0,0.5,0.4,north,1.8,No
2012/12/20,12:00,1.1,0.7,1.1,1.0,1.0,0.5,0.4,northwest,2.5,No
2012/12/20,12:10,1.1,0.7,1.1,1.0,1.0,0.5,0.4,west-northwest,5.6,No
2012/12/20,12:20,1.1,0.7,1.1,1.0,1.0,0.5,0.4,west-northwest,3.6,No
2012/12/20,12:30,1.1,0.7,1.1,1.0,1.0,0.5,0.4,west-northwest,4.4,No
2012/12/20,12:40,1.1,0.7,1.1,1.0,1.0,0.5,0.4,west,6.9,No
2012/12/20,12:50,1.1,0.7,1.1,1.0,1.0,0.5,0.4,west-northwest,7.4,No
2012/12/20,13:00,1.1,0.7,1.1,1.0,1.0,0.5,0.4,west-northwest,6.1,No
2012/12/20,13:10,1.1,0.7,1.1,1.0,1.0,0.5,0.4,west,7.1,No
2012/12/20,13:20,1.1,0.7,1.1,1.0,1.0,0.5,0.4,west,7.2,No
2012/12/20,13:30,1.1,0.7,1.1,1.0,1.0,0.5,0.4,west,9.0,No
2012/12/20,13:40,1.1,0.7,1.1,1.0,1.0,0.5,0.4,west-northwest,8.3,No
2012/12/20,13:50,1.1,0.7,1.1,1.0,1.0,0.5,0.4,west-northwest,7.8,No
2012/12/20,14:00,1.1,0.7,1.1,1.0,1.0,0.5,0.4,west-northwest,7.8,No
2012/12/20,14:10,1.1,0.7,1.1,1.0,1.0,0.5,0.4,west-northwest,7.7,No
2012/12/20,14:20,1.1,0.7,1.1,1.0,1.0,0.5,0.4,west-northwest,6.7,No
2012/12/20,14:30,1.1,0.7,1.1,1.0,1.0,0.5,0.4,west,6.6,No
2012/12/20,14:40,1.1,0.7,1.1,1.0,1.0,0.5,0.4,west-northwest,5.0,No
2012/12/20,14:50,1.1,0.7,1.1,1.0,1.0,0.5,0.4,northwest,1.5,No
2012/12/20,15:00,1.1,0.7,1.1,1.0,1.0,0.5,0.4,west-northwest,1.3,No
2012/12/20,15:10,1.1,0.7,1.1,1.0,1.0,0.5,0.4,west-northwest,4.0,No
2012/12/20,15:20,1.1,0.7,1.1,1.0,1.0,0.5,0.4,west,4.2,No
2012/12/20,15:30,1.1,0.7,1.1,1.0,1.0,0.5,0.4,west,4.8,No
2012/12/20,15:40,1.1,0.7,1.1,1.0,1.0,0.5,0.4,west-northwest,2.3,No
2012/12/20,15:50,1.1,0.7,1.1,1.0,1.0,0.5,0.4,west-southwest,0.5,No
2012/12/20,16:00,1.1,0.7,1.1,1.0,1.0,0.5,0.4,west-northwest,1.3,No
2012/12/20,16:10,1.1,0.7,1.1,1.0,1.0,0.5,0.4,west-northwest,2.8,No
2012/12/20,16:20,1.1,0.7,1.1,1.0,1.0,0.5,0.4,west-northwest,1.5,No
2012/12/20,16:30,1.1,0.7,1.1,1.0,1.0,0.5,0.4,west,1.7,No
2012/12/20,16:40,1.1,0.7,1.1,1.0,1.0,0.5,0.4,west,2.2,No
2012/12/20,16:50,1.1,0.7,1.1,1.0,1.0,0.5,0.4,west,5.2,No
2012/12/20,17:00,1.1,0.7,1.1,1.0,1.0,0.5,0.4,west-northwest,4.7,No
2012/12/20,17:10,1.1,0.7,1.1,1.0,1.0,0.5,0.4,west-northwest,4.1,No
2012/12/20,17:20,1.1,0.7,1.1,1.0,1.0,0.5,0.4,west-northwest,2.3,No
2012/12/20,17:30,1.1,0.7,1.1,1.0,1.0,0.5,0.4,northwest,2.5,No
2012/12/20,17:40,1.1,0.7,1.1,1.0,1.0,0.5,0.4,northwest,1.9,No
2012/12/20,17:50,1.1,0.7,1.1,1.0,1.0,0.5,0.4,northwest,2.6,No
2012/12/20,18:00,1.1,0.7,1.1,1.0,1.0,0.5,0.4,north-northwest,2.9,No
2012/12/20,18:10,1.1,0.7,1.1,1.0,1.0,0.5,0.4,north-northwest,3.6,No
2012/12/20,18:20,1.1,0.7,1.1,1.0,1.0,0.5,0.4,north-northwest,3.2,No
2012/12/20,18:30,1.1,0.7,1.1,1.0,1.0,0.5,0.4,north,3.3,No
2012/12/20,18:40,1.1,0.7,1.1,1.0,1.0,0.5,0.4,north,1.3,No
2012/12/20,18:50,1.1,0.7,1.1,1.0,1.0,0.5,0.4,northeast,1.7,No
2012/12/20,19:00,1.1,0.7,1.1,1.0,1.0,0.5,0.4,north,1.9,No
2012/12/20,19:10,1.1,0.7,1.1,1.0,1.0,0.5,0.4,north-northwest,0.8,No
2012/12/20,19:20,1.1,0.7,1.1,1.0,1.0,0.5,0.4,north,0.5,No
2012/12/20,19:30,1.1,0.7,1.1,1.0,1.0,0.5,0.4,west-northwest,0.8,No
2012/12/20,19:40,1.1,0.7,1.1,1.0,1.0,0.5,0.4,west-southwest,0.9,No
2012/12/20,19:50,1.1,0.7,1.1,1.0,1.0,0.5,0.4,west-southwest,0.8,No
2012/12/20,20:00,1.1,0.7,1.1,1.0,1.0,0.5,0.4,-,CALM,No
2012/12/20,20:10,1.1,0.7,1.1,1.0,1.0,0.5,0.4,north,1.1,No
2012/12/20,20:20,1.1,0.7,1.1,1.0,1.0,0.5,0.4,north-northwest,0.7,No
2012/12/20,20:30,1.1,0.7,1.1,1.0,1.0,0.5,0.4,west,1.0,No
2012/12/20,20:40,1.1,0.7,1.1,1.0,1.0,0.5,0.4,north,0.7,No
2012/12/20,20:50,1.1,0.7,1.1,1.0,1.0,0.5,0.4,northeast,0.9,No
2012/12/20,21:00,1.1,0.7,1.1,1.0,1.0,0.5,0.4,northeast,0.9,No
2012/12/20,21:10,1.1,0.7,1.1,1.0,1.0,0.5,0.4,north-northeast,0.7,No
2012/12/20,21:20,1.1,0.7,1.1,1.0,1.0,0.5,0.4,north,1.4,No
2012/12/20,21:30,1.1,0.7,1.1,1.0,1.0,0.5,0.4,north,1.4,No
2012/12/20,21:40,1.1,0.7,1.1,1.0,1.0,0.5,0.4,north,0.9,No
2012/12/20,21:50,1.1,0.7,1.1,1.0,1.0,0.5,0.4,west-northwest,0.9,No
2012/12/20,22:00,1.1,0.7,1.1,1.0,1.0,0.5,0.4,west-southwest,1.5,No
2012/12/20,22:10,1.1,0.7,1.1,1.0,1.0,0.5,0.4,south,1.2,No
2012/12/20,22:20,1.1,0.7,1.1,1.0,1.0,0.5,0.4,-,CALM,No
2012/12/20,22:30,1.1,0.7,1.1,1.0,1.0,0.5,0.4,east-northeast,1.7,No
2012/12/20,22:40,1.1,0.7,1.1,1.0,1.0,0.5,0.4,northeast,1.7,No
2012/12/20,22:50,1.1,0.7,1.1,1.0,1.0,0.5,0.4,north-northeast,0.8,No
2012/12/20,23:00,1.1,0.7,1.1,1.0,1.0,0.5,0.4,north-northeast,2.5,No
2012/12/20,23:10,1.1,0.7,1.1,1.0,1.0,0.5,0.4,north,4.2,No
2012/12/20,23:20,1.1,0.7,1.1,1.0,1.0,0.5,0.4,north,5.3,No
2012/12/20,23:30,1.1,0.7,1.1,1.0,1.0,0.5,0.4,north,6.3,No
2012/12/20,23:40,1.1,0.7,1.1,1.0,1.0,0.5,0.4,north,6.4,No
2012/12/20,23:50,1.1,0.7,1.1,1.0,1.0,0.5,0.4,north,8.5,No
